Back to catalog

DELTA 1 DEB

LostSSO
NORAD 37640·DEBRIS·🇺🇸 United States

Launched Mar 5, 1978 from Vandenberg Space Force Base

Loading…

Next Passes (next 24 hours)

TLE

StaleSource: Space-Track

Epoch: Oct 1, 2024, 22:35 UTC

1 37640U 78026JB  24275.94115161  .00009103  00000-0  40164-2 0  9991
2 37640  98.7330 167.3305 0041941 303.7037  56.0146 14.23054901 74887

Track DELTA 1 DEB in real time with AllMySat

Download on the App Store